Year,Month,Day,Hour,Minute,Value (Times are PST for temperature in C)
2020,05,03,00,00,5.40
2020,05,03,00,01,5.40
2020,05,03,00,02,5.40
2020,05,03,00,03,5.40
2020,05,03,00,04,5.30
2020,05,03,00,05,5.30
2020,05,03,00,06,5.30
2020,05,03,00,07,5.30
2020,05,03,00,08,5.30
2020,05,03,00,09,5.30
2020,05,03,00,10,5.30
2020,05,03,00,11,5.30
2020,05,03,00,12,5.20
2020,05,03,00,13,5.20
2020,05,03,00,14,5.20
2020,05,03,00,15,5.20
2020,05,03,00,16,5.20
2020,05,03,00,17,5.20
2020,05,03,00,18,5.20
2020,05,03,00,19,5.20
2020,05,03,00,20,5.20
2020,05,03,00,21,5.20
2020,05,03,00,22,5.20
2020,05,03,00,23,5.20
2020,05,03,00,24,5.20
2020,05,03,00,25,5.20
2020,05,03,00,26,5.20
2020,05,03,00,27,5.20
2020,05,03,00,28,5.20
2020,05,03,00,29,5.20
2020,05,03,00,30,5.20
2020,05,03,00,31,5.20
2020,05,03,00,32,5.20
2020,05,03,00,33,5.20
2020,05,03,00,34,5.20
2020,05,03,00,35,5.20
2020,05,03,00,36,5.20
2020,05,03,00,37,5.20
2020,05,03,00,38,5.20
2020,05,03,00,39,5.20
2020,05,03,00,40,5.30
2020,05,03,00,41,5.30
2020,05,03,00,42,5.30
2020,05,03,00,43,5.30
2020,05,03,00,44,5.30
2020,05,03,00,45,5.30
2020,05,03,00,46,5.30
2020,05,03,00,47,5.30
2020,05,03,00,48,5.40
2020,05,03,00,49,5.50
2020,05,03,00,50,5.50
2020,05,03,00,51,5.50
2020,05,03,00,52,5.60
2020,05,03,00,53,5.60
2020,05,03,00,54,5.60
2020,05,03,00,55,5.70
2020,05,03,00,56,5.70
2020,05,03,00,57,5.70
2020,05,03,00,58,5.70
2020,05,03,00,59,5.70
2020,05,03,01,00,5.70
2020,05,03,01,01,5.80
2020,05,03,01,02,5.80
2020,05,03,01,03,5.80
2020,05,03,01,04,5.90
2020,05,03,01,05,5.90
2020,05,03,01,06,5.90
2020,05,03,01,07,5.90
2020,05,03,01,08,5.90
2020,05,03,01,09,6.00
2020,05,03,01,10,6.00
2020,05,03,01,11,6.10
2020,05,03,01,12,6.10
2020,05,03,01,13,6.10
2020,05,03,01,14,6.10
2020,05,03,01,15,6.20
2020,05,03,01,16,6.20
2020,05,03,01,17,6.20
2020,05,03,01,18,6.20
2020,05,03,01,19,6.20
2020,05,03,01,20,6.20
2020,05,03,01,21,6.20
2020,05,03,01,22,6.20
2020,05,03,01,23,6.20
2020,05,03,01,24,6.20
2020,05,03,01,25,6.20
2020,05,03,01,26,6.20
2020,05,03,01,27,6.20
2020,05,03,01,28,6.20
2020,05,03,01,29,6.20
2020,05,03,01,30,6.20
2020,05,03,01,31,6.20
2020,05,03,01,32,6.20
2020,05,03,01,33,6.20
2020,05,03,01,34,6.20
2020,05,03,01,35,6.10
2020,05,03,01,36,6.10
2020,05,03,01,37,6.10
2020,05,03,01,38,6.10
2020,05,03,01,39,6.10
2020,05,03,01,40,6.00
2020,05,03,01,41,6.00
2020,05,03,01,42,6.00
2020,05,03,01,43,6.00
2020,05,03,01,44,5.90
2020,05,03,01,45,5.90
2020,05,03,01,46,5.90
2020,05,03,01,47,5.90
2020,05,03,01,48,5.90
2020,05,03,01,49,5.90
2020,05,03,01,50,5.90
2020,05,03,01,51,5.90
2020,05,03,01,52,5.90
2020,05,03,01,53,5.90
2020,05,03,01,54,5.90
2020,05,03,01,55,5.90
2020,05,03,01,56,5.90
2020,05,03,01,57,5.90
2020,05,03,01,58,6.00
2020,05,03,01,59,6.00
2020,05,03,02,00,6.00
2020,05,03,02,01,6.00
2020,05,03,02,02,6.00
2020,05,03,02,03,6.00
2020,05,03,02,04,6.00
2020,05,03,02,05,6.00
2020,05,03,02,06,6.00
2020,05,03,02,07,6.00
2020,05,03,02,08,5.90
2020,05,03,02,09,5.90
2020,05,03,02,10,5.90
2020,05,03,02,11,5.90
2020,05,03,02,12,5.90
2020,05,03,02,13,5.90
2020,05,03,02,14,5.90
2020,05,03,02,15,5.90
2020,05,03,02,16,5.90
2020,05,03,02,17,6.00
2020,05,03,02,18,6.00
2020,05,03,02,19,6.00
2020,05,03,02,20,6.00
2020,05,03,02,21,6.00
2020,05,03,02,22,6.00
2020,05,03,02,23,5.90
2020,05,03,02,24,5.90
2020,05,03,02,25,5.90
2020,05,03,02,26,5.90
2020,05,03,02,27,5.90
2020,05,03,02,28,5.90
2020,05,03,02,29,5.90
2020,05,03,02,30,5.90
2020,05,03,02,31,5.90
2020,05,03,02,32,5.90
2020,05,03,02,33,5.80
2020,05,03,02,34,5.80
2020,05,03,02,35,5.80
2020,05,03,02,36,5.80
2020,05,03,02,37,5.80
2020,05,03,02,38,5.80
2020,05,03,02,39,5.80
2020,05,03,02,40,5.80
2020,05,03,02,41,5.80
2020,05,03,02,42,5.80
2020,05,03,02,43,5.80
2020,05,03,02,44,5.80
2020,05,03,02,45,5.80
2020,05,03,02,46,5.80
2020,05,03,02,47,5.80
2020,05,03,02,48,5.90
2020,05,03,02,49,5.90
2020,05,03,02,50,5.90
2020,05,03,02,51,5.90
2020,05,03,02,52,5.90
2020,05,03,02,53,5.90
2020,05,03,02,54,6.00
2020,05,03,02,55,6.00
2020,05,03,02,56,6.10
2020,05,03,02,57,6.10
2020,05,03,02,58,6.10
2020,05,03,02,59,6.20
2020,05,03,03,00,6.20
2020,05,03,03,01,6.20
2020,05,03,03,02,6.20
2020,05,03,03,03,6.20
2020,05,03,03,04,6.20
2020,05,03,03,05,6.20
2020,05,03,03,06,6.30
2020,05,03,03,07,6.30
2020,05,03,03,08,6.30
2020,05,03,03,09,6.30
2020,05,03,03,10,6.30
2020,05,03,03,11,6.30
2020,05,03,03,12,6.30
2020,05,03,03,13,6.30
2020,05,03,03,14,6.30
2020,05,03,03,15,6.30
2020,05,03,03,16,6.30
2020,05,03,03,17,6.20
2020,05,03,03,18,6.20
2020,05,03,03,19,6.20
2020,05,03,03,20,6.20
2020,05,03,03,21,6.20
2020,05,03,03,22,6.20
2020,05,03,03,23,6.20
2020,05,03,03,24,6.20
2020,05,03,03,25,6.20
2020,05,03,03,26,6.20
2020,05,03,03,27,6.20
2020,05,03,03,28,6.20
2020,05,03,03,29,6.20
2020,05,03,03,30,6.20
2020,05,03,03,31,6.20
2020,05,03,03,32,6.20
2020,05,03,03,33,6.20
2020,05,03,03,34,6.20
2020,05,03,03,35,6.20
2020,05,03,03,36,6.20
2020,05,03,03,37,6.20
2020,05,03,03,38,6.20
2020,05,03,03,39,6.30
2020,05,03,03,40,6.30
2020,05,03,03,41,6.30
2020,05,03,03,42,6.30
2020,05,03,03,43,6.30
2020,05,03,03,44,6.30
2020,05,03,03,45,6.30
2020,05,03,03,46,6.30
2020,05,03,03,47,6.30
2020,05,03,03,48,6.20
2020,05,03,03,49,6.20
2020,05,03,03,50,6.20
2020,05,03,03,51,6.20
2020,05,03,03,52,6.20
2020,05,03,03,53,6.20
2020,05,03,03,54,6.20
2020,05,03,03,55,6.20
2020,05,03,03,56,6.20
2020,05,03,03,57,6.10
2020,05,03,03,58,6.10
2020,05,03,03,59,6.10
2020,05,03,04,00,6.10
2020,05,03,04,01,6.10
2020,05,03,04,02,6.00
2020,05,03,04,03,6.00
2020,05,03,04,04,6.00
2020,05,03,04,05,5.90
2020,05,03,04,06,5.90
2020,05,03,04,07,5.90
2020,05,03,04,08,5.90
2020,05,03,04,09,5.80
2020,05,03,04,10,5.80
2020,05,03,04,11,5.80
2020,05,03,04,12,5.80
2020,05,03,04,13,5.70
2020,05,03,04,14,5.70
2020,05,03,04,15,5.70
2020,05,03,04,16,5.70
2020,05,03,04,17,5.60
2020,05,03,04,18,5.60
2020,05,03,04,19,5.60
2020,05,03,04,20,5.60
2020,05,03,04,21,5.50
2020,05,03,04,22,5.50
2020,05,03,04,23,5.50
2020,05,03,04,24,5.40
2020,05,03,04,25,5.40
2020,05,03,04,26,5.40
2020,05,03,04,27,5.30
2020,05,03,04,28,5.30
2020,05,03,04,29,5.30
2020,05,03,04,30,5.30
2020,05,03,04,31,5.30
2020,05,03,04,32,5.20
2020,05,03,04,33,5.20
2020,05,03,04,34,5.20
2020,05,03,04,35,5.20
2020,05,03,04,36,5.20
2020,05,03,04,37,5.10
2020,05,03,04,38,5.10
2020,05,03,04,39,5.10
2020,05,03,04,40,5.10
2020,05,03,04,41,5.10
2020,05,03,04,42,5.10
2020,05,03,04,43,5.00
2020,05,03,04,44,5.00
2020,05,03,04,45,5.00
2020,05,03,04,46,4.90
2020,05,03,04,47,4.90
2020,05,03,04,48,4.90
2020,05,03,04,49,4.90
2020,05,03,04,50,4.90
2020,05,03,04,51,4.90
2020,05,03,04,52,4.90
2020,05,03,04,53,4.90
2020,05,03,04,54,4.90
2020,05,03,04,55,4.90
2020,05,03,04,56,4.90
2020,05,03,04,57,4.90
2020,05,03,04,58,4.90
2020,05,03,04,59,4.90
2020,05,03,05,00,4.90
2020,05,03,05,01,4.90
2020,05,03,05,02,4.90
2020,05,03,05,03,4.90
2020,05,03,05,04,5.00
2020,05,03,05,05,5.00
2020,05,03,05,06,5.00
2020,05,03,05,07,5.00
2020,05,03,05,08,5.00
2020,05,03,05,09,5.10
2020,05,03,05,10,5.10
2020,05,03,05,11,5.10
2020,05,03,05,12,5.10
2020,05,03,05,13,5.10
2020,05,03,05,14,5.10
2020,05,03,05,15,5.10
2020,05,03,05,16,5.20
2020,05,03,05,17,5.20
2020,05,03,05,18,5.20
2020,05,03,05,19,5.20
2020,05,03,05,20,5.30
2020,05,03,05,21,5.30
2020,05,03,05,22,5.30
2020,05,03,05,23,5.40
2020,05,03,05,24,5.40
2020,05,03,05,25,5.40
2020,05,03,05,26,5.40
2020,05,03,05,27,5.40
2020,05,03,05,28,5.40
2020,05,03,05,29,5.40
2020,05,03,05,30,5.40
2020,05,03,05,31,5.40
2020,05,03,05,32,5.40
2020,05,03,05,33,5.40
2020,05,03,05,49,6.10
2020,05,03,05,50,6.10
2020,05,03,05,51,6.10
2020,05,03,05,52,6.10
2020,05,03,05,53,6.10
2020,05,03,05,54,6.10
2020,05,03,05,55,6.10
2020,05,03,05,56,6.10
2020,05,03,05,57,6.10
2020,05,03,05,58,6.10
2020,05,03,05,59,6.10
2020,05,03,06,00,6.10
2020,05,03,06,01,6.10
2020,05,03,06,02,6.10
2020,05,03,06,03,6.00
2020,05,03,06,04,6.00
2020,05,03,06,05,6.00
2020,05,03,06,06,5.90
2020,05,03,06,07,5.90
2020,05,03,06,08,5.90
2020,05,03,06,09,5.90
2020,05,03,06,10,5.90
2020,05,03,06,11,5.90
2020,05,03,06,12,5.90
2020,05,03,06,13,5.80
2020,05,03,06,14,5.80
2020,05,03,06,15,5.80
2020,05,03,06,16,5.80
2020,05,03,06,17,5.80
2020,05,03,06,18,5.80
2020,05,03,06,19,5.70
2020,05,03,06,20,5.70
2020,05,03,06,21,5.70
2020,05,03,06,22,5.70
2020,05,03,06,23,5.70
2020,05,03,06,24,5.70
2020,05,03,06,25,5.70
2020,05,03,06,26,5.70
2020,05,03,06,27,5.70
2020,05,03,06,28,5.70
2020,05,03,06,29,5.70
2020,05,03,06,30,5.70
2020,05,03,06,31,5.70
2020,05,03,06,32,5.70
2020,05,03,06,33,5.60
2020,05,03,06,34,5.60
2020,05,03,06,35,5.60
2020,05,03,06,36,5.70
2020,05,03,06,37,5.70
2020,05,03,06,38,5.70
2020,05,03,06,39,5.60
2020,05,03,06,40,5.60
2020,05,03,06,41,5.60
2020,05,03,06,42,5.60
2020,05,03,06,43,5.60
2020,05,03,06,44,5.60
2020,05,03,06,45,5.60
2020,05,03,06,46,5.60
2020,05,03,06,47,5.60
2020,05,03,06,48,5.60
2020,05,03,06,49,5.60
2020,05,03,06,50,5.60
2020,05,03,06,51,5.60
2020,05,03,06,52,5.60
2020,05,03,06,53,5.70
2020,05,03,06,54,5.70
2020,05,03,06,55,5.70
2020,05,03,06,56,5.70
2020,05,03,06,57,5.70
2020,05,03,06,58,5.80
2020,05,03,06,59,5.80
2020,05,03,07,00,5.80
2020,05,03,07,01,5.80
2020,05,03,07,02,5.80
2020,05,03,07,03,5.80
2020,05,03,07,04,5.80
2020,05,03,07,05,5.80
2020,05,03,07,06,5.80
2020,05,03,07,07,5.80
2020,05,03,07,08,5.80
2020,05,03,07,09,5.80
2020,05,03,07,10,5.80
2020,05,03,07,11,5.80
2020,05,03,07,12,5.90
2020,05,03,07,13,5.90
2020,05,03,07,14,5.90
2020,05,03,07,15,5.90
2020,05,03,07,16,5.80
2020,05,03,07,17,5.80
2020,05,03,07,18,5.80
2020,05,03,07,19,5.80
2020,05,03,07,20,5.80
2020,05,03,07,21,5.80
2020,05,03,07,22,5.80
2020,05,03,07,23,5.80
2020,05,03,07,24,5.80
2020,05,03,07,25,5.80
2020,05,03,07,26,5.80
2020,05,03,07,27,5.80
2020,05,03,07,28,5.90
2020,05,03,07,29,5.90
2020,05,03,07,30,5.90
2020,05,03,07,31,5.90
2020,05,03,07,32,5.90
2020,05,03,07,33,5.90
2020,05,03,07,34,5.90
2020,05,03,07,35,5.90
2020,05,03,07,36,5.90
2020,05,03,07,37,6.00
2020,05,03,07,38,6.00
2020,05,03,07,39,6.00
2020,05,03,07,40,6.10
2020,05,03,07,41,6.10
2020,05,03,07,42,6.10
2020,05,03,07,43,6.10
2020,05,03,07,44,6.10
2020,05,03,07,45,6.20
2020,05,03,07,46,6.20
2020,05,03,07,47,6.20
2020,05,03,07,48,6.20
2020,05,03,07,49,6.20
2020,05,03,07,50,6.30
2020,05,03,07,51,6.30
2020,05,03,07,52,6.30
2020,05,03,07,53,6.40
2020,05,03,07,54,6.40
2020,05,03,07,55,6.40
2020,05,03,07,56,6.50
2020,05,03,07,57,6.50
2020,05,03,07,58,6.60
2020,05,03,07,59,6.60
2020,05,03,08,00,6.60
2020,05,03,08,01,6.70
2020,05,03,08,02,6.70
2020,05,03,08,03,6.70
2020,05,03,08,04,6.80
2020,05,03,08,05,6.80
2020,05,03,08,06,6.80
2020,05,03,08,07,6.80
2020,05,03,08,08,6.80
2020,05,03,08,09,6.90
2020,05,03,08,10,6.90
2020,05,03,08,11,7.00
2020,05,03,08,12,7.00
2020,05,03,08,13,7.10
2020,05,03,08,14,7.10
2020,05,03,08,15,7.10
2020,05,03,08,16,7.10
2020,05,03,08,17,7.10
2020,05,03,08,18,7.10
2020,05,03,08,19,7.20
2020,05,03,08,20,7.20
2020,05,03,08,21,7.20
2020,05,03,08,22,7.20
2020,05,03,08,23,7.20
2020,05,03,08,24,7.20
2020,05,03,08,25,7.20
2020,05,03,08,26,7.30
2020,05,03,08,27,7.30
2020,05,03,08,28,7.30
2020,05,03,08,29,7.30
2020,05,03,08,30,7.30
2020,05,03,08,31,7.30
2020,05,03,08,32,7.30
2020,05,03,08,33,7.30
2020,05,03,08,34,7.30
2020,05,03,08,35,7.40
2020,05,03,08,36,7.40
2020,05,03,08,37,7.40
2020,05,03,08,38,7.40
2020,05,03,08,39,7.40
2020,05,03,08,40,7.40
2020,05,03,08,41,7.40
2020,05,03,08,42,7.50
2020,05,03,08,43,7.50
2020,05,03,08,44,7.50
2020,05,03,08,45,7.50
2020,05,03,08,46,7.40
2020,05,03,08,47,7.40
2020,05,03,08,48,7.40
2020,05,03,08,49,7.40
2020,05,03,08,50,7.40
2020,05,03,08,51,7.40
2020,05,03,08,52,7.30
2020,05,03,08,53,7.30
2020,05,03,08,54,7.30
2020,05,03,08,55,7.30
2020,05,03,08,56,7.30
2020,05,03,08,57,7.30
2020,05,03,08,58,7.30
2020,05,03,08,59,7.30
2020,05,03,09,00,7.30
2020,05,03,09,01,7.30
2020,05,03,09,02,7.30
2020,05,03,09,03,7.30
2020,05,03,09,04,7.40
2020,05,03,09,05,7.40
2020,05,03,09,06,7.40
2020,05,03,09,07,7.40
2020,05,03,09,08,7.40
2020,05,03,09,09,7.40
2020,05,03,09,10,7.40
2020,05,03,09,11,7.40
2020,05,03,09,12,7.40
2020,05,03,09,13,7.40
2020,05,03,09,14,7.40
2020,05,03,09,15,7.40
2020,05,03,09,43,8.00
2020,05,03,09,44,8.10
2020,05,03,09,45,8.10
2020,05,03,09,46,8.20
2020,05,03,09,47,8.30
2020,05,03,09,48,8.40
2020,05,03,09,49,8.40
2020,05,03,09,50,8.50
2020,05,03,09,51,8.60
2020,05,03,09,52,8.60
2020,05,03,09,53,8.70
2020,05,03,09,54,8.80
2020,05,03,09,55,8.80
2020,05,03,09,56,8.90
2020,05,03,09,57,8.90
2020,05,03,09,58,9.00
2020,05,03,09,59,9.00
2020,05,03,10,00,9.10
2020,05,03,10,01,9.20
2020,05,03,10,02,9.20
2020,05,03,10,03,9.20
2020,05,03,10,04,9.30
2020,05,03,10,05,9.30
2020,05,03,10,06,9.30
2020,05,03,10,07,9.40
2020,05,03,10,08,9.40
2020,05,03,10,09,9.40
2020,05,03,10,10,9.50
2020,05,03,10,11,9.50
2020,05,03,10,12,9.60
2020,05,03,10,13,9.60
2020,05,03,10,14,9.70
2020,05,03,10,15,9.80
2020,05,03,10,16,9.80
2020,05,03,10,17,9.80
2020,05,03,10,18,9.80
2020,05,03,10,19,9.80
2020,05,03,10,20,9.90
2020,05,03,10,21,9.90
2020,05,03,10,22,10.00
2020,05,03,10,23,10.10
2020,05,03,10,24,10.10
2020,05,03,10,25,10.20
2020,05,03,10,26,10.20
2020,05,03,10,27,10.20
2020,05,03,10,28,10.30
2020,05,03,10,29,10.30
2020,05,03,10,30,10.30
2020,05,03,10,31,10.30
2020,05,03,10,32,10.30
2020,05,03,10,33,10.40
2020,05,03,10,34,10.40
2020,05,03,10,35,10.40
2020,05,03,10,36,10.40
2020,05,03,10,37,10.40
2020,05,03,10,38,10.40
2020,05,03,10,39,10.40
2020,05,03,10,40,10.50
2020,05,03,10,41,10.50
2020,05,03,10,42,10.60
2020,05,03,10,43,10.70
2020,05,03,10,44,10.70
2020,05,03,10,45,10.80
2020,05,03,10,46,10.80
2020,05,03,10,47,10.80
2020,05,03,10,48,10.70
2020,05,03,10,49,10.60
2020,05,03,10,50,10.60
2020,05,03,10,51,10.60
2020,05,03,10,52,10.60
2020,05,03,10,53,10.60
2020,05,03,10,54,10.50
2020,05,03,10,55,10.50
2020,05,03,10,56,10.40
2020,05,03,10,57,10.40
2020,05,03,10,58,10.40
2020,05,03,10,59,10.40
2020,05,03,11,00,10.40
2020,05,03,11,01,10.40
2020,05,03,11,02,10.40
2020,05,03,11,03,10.50
2020,05,03,11,04,10.50
2020,05,03,11,05,10.50
2020,05,03,11,06,10.50
2020,05,03,11,07,10.50
2020,05,03,11,08,10.40
2020,05,03,11,09,10.50
2020,05,03,11,10,10.50
2020,05,03,11,11,10.40
2020,05,03,11,12,10.40
2020,05,03,11,13,10.40
2020,05,03,11,14,10.30
2020,05,03,11,15,10.30
2020,05,03,11,16,10.20
2020,05,03,11,17,10.10
2020,05,03,11,18,10.10
2020,05,03,11,19,10.00
2020,05,03,11,20,9.90
2020,05,03,11,21,9.80
2020,05,03,11,22,9.70
2020,05,03,11,23,9.60
2020,05,03,11,24,9.50
2020,05,03,11,25,9.40
2020,05,03,11,26,9.30
2020,05,03,11,27,9.20
2020,05,03,11,28,9.20
2020,05,03,11,29,9.10
2020,05,03,11,30,9.10
2020,05,03,11,31,9.00
2020,05,03,11,32,9.00
2020,05,03,11,33,9.00
2020,05,03,11,34,9.00
2020,05,03,11,35,9.10
2020,05,03,11,36,9.10
2020,05,03,11,37,9.10
2020,05,03,11,38,9.10
2020,05,03,11,39,9.00
2020,05,03,11,40,9.00
2020,05,03,11,41,9.00
2020,05,03,11,42,9.00
2020,05,03,11,43,9.00
2020,05,03,11,44,8.90
2020,05,03,11,45,8.80
2020,05,03,11,46,8.80
2020,05,03,11,47,8.80
2020,05,03,11,48,8.80
2020,05,03,11,49,8.80
2020,05,03,11,50,8.80
2020,05,03,11,51,8.80
2020,05,03,11,52,8.80
2020,05,03,11,53,8.90
2020,05,03,11,54,9.00
2020,05,03,11,55,9.00
2020,05,03,11,56,9.00
2020,05,03,11,57,8.90
2020,05,03,11,58,8.90
2020,05,03,11,59,9.00
2020,05,03,12,00,9.00
2020,05,03,12,01,9.00
2020,05,03,12,02,8.90
2020,05,03,12,03,8.90
2020,05,03,12,04,9.00
2020,05,03,12,05,9.00
2020,05,03,12,06,9.10
2020,05,03,12,07,9.20
2020,05,03,12,08,9.30
2020,05,03,12,09,9.40
2020,05,03,12,10,9.60
2020,05,03,12,11,9.70
2020,05,03,12,12,9.70
2020,05,03,12,13,9.80
2020,05,03,12,14,10.00
2020,05,03,12,15,10.10
2020,05,03,12,16,10.20
2020,05,03,12,17,10.30
2020,05,03,12,18,10.30
2020,05,03,12,19,10.30
2020,05,03,12,20,10.30
2020,05,03,12,21,10.40
2020,05,03,12,22,10.40
2020,05,03,12,23,10.40
2020,05,03,12,24,10.30
2020,05,03,12,25,10.30
2020,05,03,12,26,10.30
2020,05,03,12,27,10.30
2020,05,03,12,28,10.30
2020,05,03,12,29,10.30
2020,05,03,12,30,10.30
2020,05,03,12,31,10.30
2020,05,03,12,32,10.30
2020,05,03,12,33,10.30
2020,05,03,12,34,10.30
2020,05,03,12,35,10.30
2020,05,03,12,36,10.30
2020,05,03,12,37,10.30
2020,05,03,12,38,10.30
2020,05,03,12,39,10.40
2020,05,03,12,40,10.40
2020,05,03,12,41,10.40
2020,05,03,12,42,10.40
2020,05,03,12,43,10.40
2020,05,03,12,44,10.40
2020,05,03,12,45,10.50
2020,05,03,12,46,10.50
2020,05,03,12,47,10.60
2020,05,03,12,48,10.60
2020,05,03,12,49,10.60
2020,05,03,12,50,10.60
2020,05,03,12,51,10.60
2020,05,03,12,52,10.70
2020,05,03,12,53,10.70
2020,05,03,12,54,10.80
2020,05,03,12,55,10.80
2020,05,03,12,56,10.80
2020,05,03,12,57,10.80
2020,05,03,12,58,10.80
2020,05,03,12,59,10.90
2020,05,03,13,00,11.00
2020,05,03,13,01,11.00
2020,05,03,13,02,11.00
2020,05,03,13,03,11.00
2020,05,03,13,04,11.00
2020,05,03,13,05,11.00
2020,05,03,13,06,11.00
2020,05,03,13,07,11.00
2020,05,03,13,08,11.10
2020,05,03,13,09,11.10
2020,05,03,13,10,11.10
2020,05,03,13,11,11.20
2020,05,03,13,12,11.20
2020,05,03,13,13,11.30
2020,05,03,13,14,11.40
2020,05,03,13,15,11.40
2020,05,03,13,16,11.40
2020,05,03,13,17,11.50
2020,05,03,13,18,11.60
2020,05,03,13,19,11.70
2020,05,03,13,20,11.80
2020,05,03,13,21,11.80
2020,05,03,13,22,11.90
2020,05,03,13,23,11.90
2020,05,03,13,24,12.00
2020,05,03,13,25,12.00
2020,05,03,13,26,12.10
2020,05,03,13,27,12.10
2020,05,03,13,28,12.10
2020,05,03,13,29,12.00
2020,05,03,13,30,12.00
2020,05,03,13,31,12.10
2020,05,03,13,32,12.10
2020,05,03,13,33,12.10
2020,05,03,13,34,12.20
2020,05,03,13,35,12.30
2020,05,03,13,36,12.30
2020,05,03,13,37,12.40
2020,05,03,13,38,12.40
2020,05,03,13,39,12.40
2020,05,03,13,40,12.50
2020,05,03,13,41,12.50
2020,05,03,13,42,12.40
2020,05,03,13,43,12.40
2020,05,03,13,44,12.40
2020,05,03,13,45,12.40
2020,05,03,13,46,12.30
2020,05,03,13,47,12.30
2020,05,03,13,48,12.30
2020,05,03,13,49,12.20
2020,05,03,13,50,12.20
2020,05,03,13,51,12.20
2020,05,03,13,52,12.20
2020,05,03,13,53,12.20
2020,05,03,13,54,12.20
2020,05,03,13,55,12.20
2020,05,03,13,56,12.20
2020,05,03,13,57,12.20
2020,05,03,13,58,12.20
2020,05,03,13,59,12.20
2020,05,03,14,00,12.20
2020,05,03,14,01,12.20
2020,05,03,14,02,12.20
2020,05,03,14,03,12.20
2020,05,03,14,04,12.20
2020,05,03,14,05,12.20
2020,05,03,14,06,12.20
2020,05,03,14,07,12.20
2020,05,03,14,08,12.20
2020,05,03,14,09,12.20
2020,05,03,14,10,12.20
2020,05,03,14,11,12.20
2020,05,03,14,12,12.10
2020,05,03,14,13,12.10
2020,05,03,14,14,12.10
2020,05,03,14,15,12.10
2020,05,03,14,16,12.10
2020,05,03,14,17,12.10
2020,05,03,14,18,12.10
2020,05,03,14,19,12.10
2020,05,03,14,20,12.10
2020,05,03,14,21,12.10
2020,05,03,14,22,12.00
2020,05,03,14,23,12.00
2020,05,03,14,24,11.90
2020,05,03,14,25,11.80
2020,05,03,14,26,11.80
2020,05,03,14,27,11.70
2020,05,03,14,28,11.70
2020,05,03,14,29,11.60
2020,05,03,14,30,11.60
2020,05,03,14,31,11.60
2020,05,03,14,32,11.70
2020,05,03,14,33,11.70
2020,05,03,14,34,11.70
2020,05,03,14,35,11.70
2020,05,03,14,36,11.70
2020,05,03,14,37,11.60
2020,05,03,14,38,11.60
2020,05,03,14,39,11.60
2020,05,03,14,40,11.50
2020,05,03,14,41,11.40
2020,05,03,14,42,11.30
2020,05,03,14,43,11.20
2020,05,03,14,44,11.10
2020,05,03,14,45,11.00
2020,05,03,14,46,10.90
2020,05,03,14,47,10.80
2020,05,03,14,48,10.70
2020,05,03,14,49,10.70
2020,05,03,14,50,10.60
2020,05,03,14,51,10.60
2020,05,03,14,52,10.50
2020,05,03,14,53,10.60
2020,05,03,14,54,10.60
2020,05,03,14,55,10.70
2020,05,03,14,56,10.90
2020,05,03,14,57,11.00
2020,05,03,14,58,11.10
2020,05,03,14,59,11.20
2020,05,03,15,00,11.30
2020,05,03,15,01,11.40
2020,05,03,15,02,11.40
2020,05,03,15,03,11.50
2020,05,03,15,04,11.60
2020,05,03,15,05,11.60
2020,05,03,15,06,11.70
2020,05,03,15,07,11.80
2020,05,03,15,08,11.90
2020,05,03,15,09,12.00
2020,05,03,15,10,12.00
2020,05,03,15,11,12.20
2020,05,03,15,12,12.30
2020,05,03,15,13,12.40
2020,05,03,15,14,12.50
2020,05,03,15,15,12.50
2020,05,03,15,16,12.40
2020,05,03,15,17,12.40
2020,05,03,15,18,12.30
2020,05,03,15,19,12.40
2020,05,03,15,20,12.40
2020,05,03,15,21,12.50
2020,05,03,15,22,12.60
2020,05,03,15,23,12.60
2020,05,03,15,24,12.60
2020,05,03,15,25,12.50
2020,05,03,15,26,12.50
2020,05,03,15,27,12.40
2020,05,03,15,28,12.40
2020,05,03,15,29,12.30
2020,05,03,15,30,12.20
2020,05,03,15,31,12.10
2020,05,03,15,32,12.00
2020,05,03,15,33,12.00
2020,05,03,15,34,12.00
2020,05,03,15,35,12.00
2020,05,03,15,36,12.00
2020,05,03,15,37,12.00
2020,05,03,15,38,12.00
2020,05,03,15,39,12.10
2020,05,03,15,40,12.20
2020,05,03,15,41,12.30
2020,05,03,15,42,12.30
2020,05,03,15,43,12.30
2020,05,03,15,44,12.30
2020,05,03,15,45,12.30
2020,05,03,15,46,12.30
2020,05,03,15,47,12.20
2020,05,03,15,48,12.20
2020,05,03,15,49,12.20
2020,05,03,15,50,12.20
2020,05,03,15,51,12.20
2020,05,03,15,52,12.20
2020,05,03,15,53,12.20
2020,05,03,15,54,12.30
2020,05,03,15,55,12.30
2020,05,03,15,56,12.30
2020,05,03,15,57,12.40
2020,05,03,15,58,12.40
2020,05,03,15,59,12.50
2020,05,03,16,00,12.50
2020,05,03,16,01,12.60
2020,05,03,16,02,12.70
2020,05,03,16,03,12.70
2020,05,03,16,04,12.80
2020,05,03,16,05,12.90
2020,05,03,16,06,13.00
2020,05,03,16,07,13.00
2020,05,03,16,08,13.10
2020,05,03,16,09,13.10
2020,05,03,16,10,13.20
2020,05,03,16,11,13.30
2020,05,03,16,12,13.30
2020,05,03,16,13,13.40
2020,05,03,16,14,13.50
2020,05,03,16,15,13.60
2020,05,03,16,16,13.60
2020,05,03,16,17,13.60
2020,05,03,16,18,13.60
2020,05,03,16,19,13.50
2020,05,03,16,20,13.50
2020,05,03,16,21,13.40
2020,05,03,16,22,13.40
2020,05,03,16,23,13.30
2020,05,03,16,24,13.30
2020,05,03,16,25,13.30
2020,05,03,16,26,13.20
2020,05,03,16,27,13.20
2020,05,03,16,28,13.20
2020,05,03,16,29,13.20
2020,05,03,16,30,13.20
2020,05,03,16,31,13.20
2020,05,03,16,32,13.20
2020,05,03,16,33,13.20
2020,05,03,16,34,13.30
2020,05,03,16,35,13.30
2020,05,03,16,36,13.30
2020,05,03,16,37,13.40
2020,05,03,16,38,13.40
2020,05,03,16,39,13.50
2020,05,03,16,40,13.50
2020,05,03,16,41,13.60
2020,05,03,16,42,13.60
2020,05,03,16,43,13.50
2020,05,03,16,44,13.50
2020,05,03,16,45,13.40
2020,05,03,16,46,13.50
2020,05,03,16,47,13.40
2020,05,03,16,48,13.40
2020,05,03,16,49,13.40
2020,05,03,16,50,13.40
2020,05,03,16,51,13.40
2020,05,03,16,52,13.40
2020,05,03,16,53,13.50
2020,05,03,16,54,13.60
2020,05,03,16,55,13.70
2020,05,03,16,56,13.70
2020,05,03,16,57,13.70
2020,05,03,16,58,13.70
2020,05,03,16,59,13.60
2020,05,03,17,00,13.60
2020,05,03,17,01,13.60
2020,05,03,17,02,13.60
2020,05,03,17,03,13.60
2020,05,03,17,04,13.60
2020,05,03,17,05,13.50
2020,05,03,17,06,13.50
2020,05,03,17,07,13.40
2020,05,03,17,08,13.40
2020,05,03,17,09,13.30
2020,05,03,17,10,13.30
2020,05,03,17,11,13.30
2020,05,03,17,12,13.30
2020,05,03,17,13,13.30
2020,05,03,17,14,13.30
2020,05,03,17,15,13.30
2020,05,03,17,16,13.40
2020,05,03,17,17,13.40
2020,05,03,17,18,13.40
2020,05,03,17,19,13.50
2020,05,03,17,20,13.50
2020,05,03,17,21,13.60
2020,05,03,17,22,13.60
2020,05,03,17,23,13.60
2020,05,03,17,24,13.70
2020,05,03,17,25,13.70
2020,05,03,17,26,13.80
2020,05,03,17,27,13.80
2020,05,03,17,28,13.80
2020,05,03,17,29,13.80
2020,05,03,17,30,13.80
2020,05,03,17,31,13.80
2020,05,03,17,32,13.80
2020,05,03,17,33,13.80
2020,05,03,17,34,13.70
2020,05,03,17,35,13.70
2020,05,03,17,36,13.70
2020,05,03,17,37,13.70
2020,05,03,17,38,13.70
2020,05,03,17,39,13.60
2020,05,03,17,40,13.50
2020,05,03,17,41,13.40
2020,05,03,17,42,13.30
2020,05,03,17,43,13.30
2020,05,03,17,44,13.30
2020,05,03,17,45,13.30
2020,05,03,17,46,13.30
2020,05,03,17,47,13.30
2020,05,03,17,48,13.30
2020,05,03,17,49,13.30
2020,05,03,17,50,13.30
2020,05,03,17,51,13.30
2020,05,03,17,52,13.30
2020,05,03,17,53,13.30
2020,05,03,17,54,13.30
2020,05,03,17,55,13.30
2020,05,03,17,56,13.30
2020,05,03,17,57,13.40
2020,05,03,17,58,13.50
2020,05,03,17,59,13.50
2020,05,03,18,00,13.60
2020,05,03,18,01,13.60
2020,05,03,18,02,13.60
2020,05,03,18,03,13.70
2020,05,03,18,04,13.70
2020,05,03,18,05,13.70
2020,05,03,18,06,13.70
2020,05,03,18,07,13.70
2020,05,03,18,08,13.60
2020,05,03,18,09,13.60
2020,05,03,18,10,13.50
2020,05,03,18,11,13.40
2020,05,03,18,12,13.40
2020,05,03,18,13,13.40
2020,05,03,18,14,13.40
2020,05,03,18,15,13.40
2020,05,03,18,16,13.40
2020,05,03,18,17,13.40
2020,05,03,18,18,13.40
2020,05,03,18,19,13.40
2020,05,03,18,20,13.40
2020,05,03,18,21,13.40
2020,05,03,18,22,13.40
2020,05,03,18,23,13.30
2020,05,03,18,24,13.30
2020,05,03,18,25,13.40
2020,05,03,18,26,13.40
2020,05,03,18,27,13.40
2020,05,03,18,28,13.40
2020,05,03,18,29,13.40